Location: ?
(35.4214°N, 139.3011°E)
Time: 22:33:00
(UTC+00:00)

ATLAS CENTAUR R/B - Pass Details

Date: 14 July 2020
Orbit: 475 x 672 km, 64.7° (Epoch: 13 July)

Event Time Altitude Azimuth Distance (km) Brightness Sun altitude
Rises 11:00:55 0° 328° (NNW) 2,534 6.2 -11.5°
Reaches altitude 10° 11:03:04 10° 325° (NW) 1,646 5.0 -11.9°
Maximum altitude 11:06:41 69° 243° (WSW) 511 1.2 -12.5°
Enters shadow 11:09:22 17° 161° (SSE) 1,270 2.7 -12.9°
